QPF
0.00 0.00 0.00 0.00 0.00 0.00 0.00 0.00 0.00 0.00 0.00 0.00 0.00 0.00 0.00 0.00 0.00 0.00 0.00 0.00 0.00 0.00 0.00 0.00 0.00 0.00 0.00 0.00 0.00 0.00 0.00 0.00 0.00 0.00 0.00 0.00 0.00 0.00
0.00 0.00 0.00 0.00 0.00 0.00 0.00 0.00 0.00 0.00 0.00 0.00 0.00 0.00 0.00 0.00 0.00 0.00 0.00 0.00 0.00 0.00 0.00 0.00 0.00 0.00 0.00 0.00 0.00 0.00 0.00 0.00 0.00 0.00 0.00 0.00 0.00 0.00
0.00 0.00 0.00 0.00 0.00 0.00 0.00 0.00 0.00 0.00 0.00 0.00 0.00 0.00 0.00 0.00 0.00 0.00 0.00 0.00 0.00 0.00 0.00 0.00 0.00 0.00 0.00 0.00 0.00 0.00 0.00 0.00 0.00 0.00 0.00 0.00 0.00 0.00
0.00 0.00 0.00 0.00 0.00 0.00 0.00 0.00 0.00 0.00 0.00 0.00 0.00 0.00 0.00 0.00 0.00 0.00 0.00 0.00 0.00 0.00 0.00 0.00 0.00 0.00 0.00 0.00 0.00 0.00 0.00 0.00 0.00 0.00 0.00 0.00 0.00 0.00
0.00 0.00 0.00 0.00 0.00 0.00 0.00 0.00 0.00 0.00 0.00 0.00 0.00 0.00 0.00 0.00 0.00 0.00 0.00 0.00 0.00 0.00 0.00 0.00 0.00 0.00 0.00 0.00 0.00 0.00 0.00 0.00 0.00 0.00 0.00 0.00 0.00 0.00
0.00 0.00 0.00 0.00 0.00 0.00 0.00 0.00 0.00 0.00 0.00 0.00 0.00 0.00 0.00 0.00 0.00 0.00 0.00 0.00 0.00 0.00 0.00 0.00 0.00 0.00 0.00 0.00 0.00 0.00 0.00 0.00 0.00 0.00 0.00 0.00 0.00 0.00
0.00 0.00 0.00 0.00 0.00 0.00 0.00 0.00 0.00 0.00 0.00 0.00 0.00 0.00 0.00 0.00 0.00 0.00 0.00 0.00 0.00 0.00 0.00 0.00 0.00 0.00 0.00 0.00 0.00 0.00 0.00 0.00 0.00 0.00 0.00 0.00 0.00 0.00
0.00 0.00 0.00 0.00 0.00 0.00 0.00 0.00 0.00 0.00 0.00 0.00 0.00 0.00 0.00 0.00 0.00 0.00 0.00 0.00 0.00 0.00 0.00 0.00 0.00 0.00 0.00 0.00 0.00 0.00 0.00 0.00 0.00 0.00 0.00 0.00 0.00 0.00
0.00 0.00 0.00 0.00 0.00 0.00 0.00 0.00 0.00 0.00 0.00 0.00 0.00 0.00 0.00 0.00 0.00 0.00 0.00 0.00 0.00 0.00 0.00 0.00 0.00 0.00 0.00 0.00 0.00 0.00 0.03 0.01 0.00 0.00 0.00 0.00 0.00 0.00
0.00 0.00 0.00 0.00 0.00 0.00 0.00 0.00 0.00 0.00 0.00 0.00 0.00 0.00 0.00 0.00 0.00 0.01 0.00 0.00 0.00 0.00 0.00 0.00 0.00 0.00 0.00 0.00 0.01 0.10 0.13 0.07 0.02 0.00 0.00 0.00 0.00 0.00
0.00 0.00 0.00 0.00 0.00 0.00 0.00 0.00 0.00 0.00 0.00 0.00 0.00 0.00 0.00 0.00 0.00 0.00 0.01 0.01 0.00 0.00 0.00 0.00 0.00 0.00 0.00 0.01 0.06 0.14 0.14 0.11 0.06 0.02 0.00 0.00 0.00 0.00
0.00 0.00 0.00 0.00 0.00 0.00 0.00 0.00 0.00 0.00 0.00 0.00 0.00 0.00 0.00 0.00 0.00 0.00 0.03 0.04 0.02 0.01 0.01 0.01 0.00 0.01 0.00 0.00 0.01 0.04 0.07 0.08 0.07 0.04 0.01 0.00 0.00 0.00
0.00 0.00 0.00 0.00 0.00 0.00 0.00 0.00 0.00 0.00 0.00 0.00 0.01 0.01 0.01 0.02 0.01 0.01 0.01 0.02 0.02 0.01 0.03 0.05 0.01 0.01 0.01 0.00 0.00 0.00 0.01 0.05 0.06 0.06 0.04 0.01 0.00 0.00
0.00 0.00 0.00 0.00 0.00 0.00 0.00 0.00 0.00 0.00 0.01 0.01 0.01 0.01 0.02 0.02 0.00 0.01 0.01 0.01 0.01 0.01 0.00 0.02 0.02 0.01 0.01 0.01 0.00 0.00 0.00 0.01 0.03 0.05 0.04 0.03 0.01 0.00
0.00 0.00 0.00 0.00 0.00 0.00 0.00 0.00 0.00 0.00 0.01 0.03 0.05 0.04 0.02 0.01 0.01 0.01 0.00 0.01 0.01 0.01 0.00 0.01 0.01 0.01 0.02 0.01 0.00 0.00 0.00 0.00 0.01 0.02 0.03 0.02 0.02 0.01
0.00 0.00 0.00 0.00 0.00 0.00 0.00 0.00 0.01 0.02 0.04 0.03 0.03 0.01 0.00 0.00 0.00 0.00 0.00 0.00 0.00 0.00 0.00 0.00 0.00 0.02 0.02 0.01 0.01 0.01 0.02 0.03 0.01 0.01 0.02 0.02 0.01 0.00
0.00 0.00 0.00 0.01 0.02 0.01 0.00 0.00 0.01 0.02 0.02 0.01 0.00 0.00 0.00 0.00 0.00 0.00 0.00 0.00 0.00 0.00 0.00 0.00 0.00 0.00 0.01 0.01 0.02 0.03 0.03 0.04 0.03 0.01 0.00 0.00 0.00 0.00
0.00 0.00 0.00 0.00 0.00 0.00 0.00 0.00 0.00 0.00 0.00 0.00 0.00 0.00 0.00 0.00 0.00 0.00 0.00 0.00 0.00 0.00 0.00 0.00 0.00 0.00 0.00 0.00 0.01 0.01 0.01 0.01 0.01 0.00 0.00 0.00 0.00 0.00
0.00 0.00 0.00 0.00 0.00 0.00 0.00 0.00 0.00 0.00 0.00 0.00 0.00 0.00 0.00 0.00 0.00 0.00 0.00 0.00 0.00 0.00 0.00 0.00 0.00 0.00 0.00 0.00 0.00 0.00 0.00 0.00 0.00 0.00 0.00 0.00 0.00 0.00
0.00 0.00 0.00 0.00 0.00 0.00 0.00 0.00 0.00 0.00 0.00 0.00 0.00 0.00 0.00 0.00 0.00 0.00 0.00 0.00 0.00 0.00 0.00 0.00 0.00 0.00 0.00 0.00 0.00 0.00 0.00 0.00 0.00 0.00 0.00 0.00 0.00 0.00
0.00 0.00 0.00 0.00 0.00 0.00 0.00 0.00 0.00 0.00 0.00 0.00 0.00 0.00 0.00 0.00 0.00 0.00 0.00 0.00 0.00 0.00 0.00 0.00 0.00 0.00 0.00 0.00 0.00 0.00 0.00 0.00 0.00 0.00 0.00 0.00 0.00 0.00
0.00 0.00 0.00 0.00 0.00 0.00 0.00 0.00 0.00 0.00 0.00 0.00 0.00 0.00 0.00 0.00 0.00 0.00 0.00 0.00 0.00 0.00 0.00 0.00 0.00 0.00 0.00 0.00 0.00 0.00 0.00 0.00 0.00 0.00 0.00 0.00 0.00 0.00
0.00 0.00 0.00 0.00 0.00 0.00 0.00 0.00 0.00 0.00 0.00 0.00 0.00 0.00 0.00 0.00 0.00 0.00 0.00 0.00 0.00 0.00 0.00 0.00 0.00 0.00 0.00 0.00 0.00 0.00 0.00 0.00 0.00 0.00 0.00 0.00 0.00 0.00
MSLP
1021.51 1021.81 1021.96 1021.91 1022.09 1022.07 1022.22 1022.13 1021.86 1021.32 1020.82 1020.82 1020.81 1021.00 1021.01 1021.04 1020.96 1021.06 1021.04 1021.10 1021.58 1021.92 1022.06 1022.30 1022.48 1022.60 1022.69 1022.80 1022.80 1022.79 1022.90 1022.93 1022.98 1023.00 1022.97 1023.04 1022.98 1022.95
1021.02 1021.38 1021.58 1021.55 1021.74 1021.81 1021.86 1021.97 1022.02 1021.78 1021.13 1020.82 1020.54 1020.67 1020.65 1020.53 1020.51 1020.67 1020.40 1020.62 1020.84 1021.13 1021.28 1021.42 1021.48 1021.58 1021.69 1021.81 1021.91 1022.14 1022.31 1022.41 1022.46 1022.44 1022.24 1022.10 1022.25 1022.57
1020.68 1020.89 1021.04 1021.27 1021.22 1021.27 1021.48 1021.56 1021.56 1021.64 1021.09 1020.29 1020.48 1020.42 1020.57 1020.32 1019.96 1020.12 1020.08 1019.96 1019.70 1020.06 1020.28 1020.41 1020.50 1020.61 1020.85 1020.92 1020.98 1021.12 1021.22 1021.42 1021.76 1021.96 1021.96 1021.91 1021.90 1021.92
1019.96 1020.31 1020.48 1020.62 1020.88 1020.95 1020.93 1020.98 1020.89 1020.96 1020.97 1020.17 1019.98 1019.91 1019.97 1019.62 1019.54 1019.49 1019.31 1018.98 1018.92 1018.73 1019.17 1019.32 1019.39 1019.42 1019.52 1019.64 1019.81 1020.00 1020.17 1020.43 1020.48 1020.12 1020.56 1021.24 1021.36 1021.51
1019.16 1019.40 1019.64 1019.94 1020.08 1020.04 1020.20 1020.09 1020.10 1020.34 1020.34 1020.08 1019.36 1019.40 1019.28 1019.30 1019.06 1018.86 1018.77 1018.26 1018.02 1017.75 1018.10 1018.12 1018.16 1018.18 1018.28 1018.38 1018.52 1018.74 1018.86 1019.10 1019.25 1019.56 1019.66 1019.99 1020.66 1020.82
1018.47 1018.64 1018.84 1019.06 1019.19 1019.33 1019.45 1019.55 1019.59 1019.58 1019.47 1019.43 1018.82 1018.46 1018.30 1018.41 1018.43 1018.08 1017.50 1017.16 1016.86 1016.70 1016.36 1016.50 1016.42 1016.63 1016.83 1016.92 1016.96 1017.17 1017.33 1017.69 1018.05 1018.27 1018.39 1018.68 1018.80 1019.34
1017.72 1017.93 1018.04 1018.16 1018.38 1018.56 1018.67 1018.76 1019.03 1019.04 1018.84 1018.49 1017.97 1017.71 1017.35 1017.34 1017.29 1016.94 1016.62 1016.20 1015.96 1016.01 1015.57 1015.20 1014.92 1014.88 1015.11 1015.67 1015.53 1015.55 1015.58 1015.86 1016.28 1016.66 1017.28 1017.59 1017.63 1017.96
1016.85 1017.00 1017.23 1017.46 1017.69 1017.91 1018.10 1018.30 1018.40 1018.21 1018.05 1017.79 1017.03 1016.52 1016.46 1016.75 1016.57 1016.48 1016.20 1015.64 1014.50 1014.75 1014.32 1014.15 1014.30 1013.55 1013.32 1013.08 1012.88 1013.26 1013.52 1013.88 1014.34 1014.87 1015.48 1016.09 1016.74 1017.22
1016.12 1016.20 1016.33 1016.34 1016.74 1016.99 1017.06 1017.28 1017.46 1017.45 1017.36 1017.05 1016.43 1016.17 1015.76 1016.06 1016.02 1015.89 1015.67 1015.08 1014.14 1014.07 1014.33 1012.59 1013.14 1012.00 1011.95 1011.55 1011.57 1011.85 1012.28 1012.63 1012.86 1013.26 1013.86 1014.55 1015.14 1015.90
1015.22 1015.34 1015.56 1015.61 1015.87 1016.16 1016.27 1016.09 1015.93 1015.80 1015.96 1016.20 1015.83 1015.27 1015.25 1015.23 1015.18 1015.15 1015.16 1014.88 1014.04 1013.73 1013.88 1012.65 1012.09 1011.15 1010.92 1010.40 1010.45 1010.76 1011.32 1011.89 1012.16 1012.22 1012.34 1012.98 1013.76 1014.66
1014.36 1014.54 1014.76 1014.90 1015.13 1015.50 1015.67 1015.25 1014.83 1014.58 1014.43 1014.76 1014.71 1014.69 1014.91 1015.05 1015.23 1015.36 1015.18 1014.78 1013.80 1012.55 1012.67 1012.13 1011.20 1010.45 1009.96 1009.26 1009.00 1009.23 1009.64 1010.02 1010.60 1010.83 1011.17 1011.51 1012.17 1013.31
1013.44 1013.60 1013.89 1014.12 1014.37 1014.67 1014.90 1014.68 1014.09 1013.81 1013.71 1013.47 1013.94 1014.20 1014.12 1013.96 1014.30 1014.86 1014.58 1014.25 1013.69 1012.50 1011.61 1011.46 1010.89 1010.66 1009.12 1008.11 1008.06 1008.12 1008.16 1009.08 1008.91 1009.65 1009.88 1010.06 1011.00 1012.09
1012.22 1012.24 1012.55 1012.91 1013.37 1013.76 1013.91 1013.88 1013.51 1013.43 1013.30 1013.52 1013.50 1013.39 1013.11 1013.10 1013.12 1012.78 1013.06 1013.32 1012.85 1012.16 1011.42 1011.57 1010.54 1010.04 1009.65 1007.80 1007.61 1007.40 1007.27 1006.90 1007.65 1007.86 1008.62 1009.25 1009.88 1010.06
1011.45 1011.44 1011.73 1012.17 1012.59 1012.97 1013.35 1013.39 1013.23 1013.23 1013.46 1013.34 1013.09 1012.86 1012.73 1012.50 1012.33 1012.18 1012.10 1012.04 1011.92 1011.64 1011.03 1011.18 1010.46 1010.02 1008.94 1007.41 1006.50 1006.02 1005.79 1005.70 1005.84 1006.04 1006.45 1007.17 1007.98 1008.80
1011.06 1011.02 1011.33 1011.67 1012.07 1012.42 1012.52 1012.69 1012.77 1013.14 1013.03 1012.94 1012.62 1012.52 1012.27 1012.00 1012.01 1011.82 1011.18 1010.97 1010.75 1010.52 1010.28 1010.07 1009.80 1009.32 1008.73 1007.61 1005.91 1005.48 1004.71 1004.14 1004.34 1004.36 1005.04 1005.85 1006.52 1007.10
1011.16 1010.95 1011.25 1011.51 1011.74 1011.91 1012.06 1012.15 1012.32 1012.42 1012.28 1012.27 1012.24 1011.96 1011.99 1011.70 1011.23 1011.00 1010.86 1010.86 1010.70 1010.30 1010.01 1009.82 1009.59 1009.45 1008.61 1007.88 1006.98 1005.09 1004.61 1003.56 1003.12 1003.02 1003.28 1003.93 1004.82 1005.20
1010.31 1010.60 1010.77 1010.93 1011.16 1011.39 1011.47 1011.52 1011.54 1011.71 1011.83 1011.69 1011.60 1011.35 1011.23 1011.12 1010.98 1011.06 1011.00 1010.88 1010.63 1010.23 1009.85 1009.77 1009.59 1009.80 1009.21 1007.93 1006.65 1006.08 1004.64 1003.13 1002.12 1002.07 1002.18 1002.40 1003.22 1004.31
1009.96 1010.10 1010.38 1010.53 1010.78 1011.11 1011.36 1011.52 1011.55 1011.57 1011.26 1011.37 1011.32 1011.30 1011.17 1011.07 1011.02 1010.84 1010.96 1010.85 1010.72 1010.66 1010.06 1009.60 1009.47 1009.52 1009.04 1007.89 1008.00 1007.85 1006.14 1004.23 1002.13 1000.84 1001.10 1002.29 1003.88 1005.29
1009.68 1010.24 1010.59 1010.82 1011.17 1011.37 1011.44 1011.31 1011.14 1011.26 1011.62 1011.38 1011.27 1011.20 1011.12 1011.05 1011.14 1010.95 1010.81 1010.69 1010.48 1010.52 1010.11 1009.81 1009.88 1009.64 1008.75 1008.40 1008.22 1008.77 1007.61 1005.04 1003.58 1002.50 1002.89 1004.01 1005.24 1006.84
1010.11 1010.70 1011.00 1011.14 1011.28 1011.24 1011.43 1011.48 1011.42 1011.50 1011.67 1011.70 1011.45 1011.11 1011.02 1011.09 1011.04 1010.85 1010.84 1011.34 1011.32 1010.74 1009.97 1010.08 1010.19 1010.04 1009.56 1009.39 1009.00 1008.72 1008.66 1006.77 1006.12 1005.92 1005.77 1006.39 1007.24 1007.98
1010.98 1011.40 1011.52 1011.70 1011.92 1012.05 1012.24 1012.24 1012.24 1012.20 1012.18 1012.12 1011.85 1011.32 1011.06 1011.08 1010.94 1011.24 1011.19 1011.32 1011.22 1010.68 1010.27 1010.14 1010.20 1010.37 1009.61 1009.41 1009.51 1009.37 1009.48 1008.23 1008.09 1007.96 1007.79 1007.71 1008.46 1009.77
1011.72 1012.00 1012.45 1012.65 1012.89 1013.03 1013.06 1013.01 1012.83 1012.54 1012.24 1012.07 1011.83 1011.55 1011.44 1011.27 1011.03 1010.74 1010.61 1010.70 1010.77 1010.74 1010.34 1009.90 1009.58 1009.30 1009.24 1009.37 1009.58 1009.45 1009.53 1009.26 1009.31 1009.01 1008.82 1008.87 1009.29 1010.00
1012.85 1013.02 1013.23 1013.47 1013.63 1013.66 1013.61 1013.54 1013.36 1013.13 1012.96 1012.71 1012.53 1012.20 1011.70 1011.18 1010.90 1010.61 1010.42 1010.18 1010.22 1010.18 1010.01 1009.68 1009.38 1009.10 1009.02 1009.22 1009.42 1009.80 1009.70 1009.87 1010.21 1009.70 1009.50 1009.46 1009.30 1009.30
Thickness
5771 5769 5768 5769 5768 5768 5767 5767 5765 5760 5767 5775 5774 5777 5776 5776 5776 5775 5774 5773 5770 5764 5760 5755 5751 5747 5743 5738 5734 5730 5724 5718 5712 5707 5703 5697 5691 5686
5776 5773 5772 5773 5771 5771 5771 5770 5769 5766 5763 5776 5779 5780 5779 5780 5780 5780 5780 5777 5774 5769 5764 5760 5757 5752 5747 5743 5739 5734 5728 5722 5718 5712 5709 5703 5696 5686
5778 5777 5776 5775 5776 5777 5775 5774 5773 5771 5769 5781 5783 5783 5781 5783 5785 5783 5782 5781 5780 5776 5772 5768 5764 5759 5752 5748 5743 5737 5732 5726 5719 5713 5708 5704 5698 5691
5782 5780 5779 5781 5778 5779 5780 5779 5780 5780 5776 5777 5784 5785 5785 5787 5786 5786 5785 5785 5783 5782 5777 5775 5771 5767 5762 5756 5749 5742 5735 5727 5722 5722 5715 5705 5698 5692
5787 5786 5785 5784 5783 5785 5785 5786 5786 5784 5783 5781 5786 5790 5790 5790 5790 5790 5789 5789 5788 5788 5784 5780 5777 5773 5767 5762 5755 5748 5742 5735 5728 5719 5713 5708 5699 5692
5791 5792 5791 5791 5791 5791 5790 5789 5790 5789 5790 5788 5791 5794 5795 5795 5793 5792 5794 5799 5796 5792 5792 5787 5783 5779 5773 5767 5763 5756 5748 5740 5731 5723 5719 5713 5707 5698
5796 5796 5797 5799 5799 5799 5798 5797 5795 5793 5794 5795 5797 5798 5798 5797 5794 5799 5797 5800 5800 5795 5795 5792 5789 5786 5780 5771 5765 5761 5757 5748 5738 5730 5720 5716 5712 5704
5799 5802 5803 5802 5802 5801 5800 5800 5800 5799 5796 5797 5803 5804 5804 5800 5800 5797 5796 5795 5798 5799 5799 5796 5791 5792 5786 5781 5779 5771 5764 5756 5747 5737 5727 5719 5713 5704
5804 5806 5807 5811 5808 5808 5808 5804 5802 5800 5800 5802 5804 5805 5806 5802 5801 5797 5796 5798 5800 5796 5788 5800 5792 5796 5791 5788 5783 5776 5767 5759 5751 5742 5733 5722 5715 5707
5810 5812 5812 5813 5814 5812 5811 5812 5813 5813 5808 5804 5807 5810 5809 5808 5804 5800 5797 5795 5802 5798 5786 5785 5793 5794 5793 5792 5787 5777 5765 5755 5748 5742 5736 5725 5717 5707
5815 5816 5816 5816 5816 5812 5811 5813 5816 5817 5816 5814 5812 5811 5808 5804 5798 5792 5786 5784 5787 5800 5793 5783 5792 5790 5794 5795 5789 5783 5772 5761 5748 5741 5735 5727 5717 5706
5819 5820 5818 5819 5818 5814 5813 5813 5814 5815 5815 5816 5816 5812 5808 5804 5798 5788 5785 5779 5776 5782 5792 5779 5778 5772 5778 5798 5792 5784 5776 5762 5755 5739 5731 5727 5714 5700
5822 5824 5826 5822 5818 5815 5814 5816 5817 5818 5816 5812 5811 5810 5809 5806 5801 5797 5789 5781 5778 5777 5785 5772 5774 5772 5766 5777 5783 5780 5776 5772 5758 5747 5733 5719 5709 5702
5824 5828 5828 5824 5819 5816 5812 5813 5812 5810 5807 5805 5805 5804 5802 5802 5801 5799 5793 5788 5785 5779 5778 5768 5765 5761 5765 5773 5774 5780 5777 5772 5764 5756 5741 5724 5711 5694
5825 5826 5824 5821 5817 5814 5812 5810 5807 5803 5801 5797 5798 5798 5799 5800 5796 5792 5792 5788 5786 5781 5775 5769 5764 5762 5758 5758 5770 5769 5767 5771 5763 5752 5737 5723 5707 5693
5814 5818 5817 5815 5813 5811 5809 5806 5803 5800 5798 5794 5793 5795 5793 5792 5790 5789 5784 5780 5774 5772 5770 5763 5758 5752 5750 5747 5748 5760 5758 5754 5753 5746 5731 5719 5702 5691
5813 5812 5809 5808 5806 5805 5803 5802 5800 5796 5791 5790 5790 5789 5787 5785 5781 5778 5772 5768 5762 5758 5756 5754 5748 5737 5733 5739 5743 5740 5745 5751 5747 5733 5721 5711 5696 5685
5806 5804 5801 5800 5798 5794 5791 5788 5788 5786 5785 5782 5780 5778 5775 5772 5769 5767 5762 5757 5751 5745 5745 5744 5739 5732 5726 5726 5719 5713 5716 5726 5733 5733 5719 5696 5673 5659
5797 5792 5788 5786 5782 5780 5779 5779 5779 5777 5773 5772 5770 5768 5766 5763 5757 5755 5752 5749 5743 5737 5734 5732 5723 5718 5720 5716 5709 5695 5700 5713 5711 5709 5690 5669 5650 5634
5782 5775 5773 5773 5771 5772 5769 5767 5766 5764 5761 5759 5758 5758 5756 5751 5747 5744 5741 5729 5723 5724 5724 5717 5708 5703 5701 5698 5694 5689 5683 5689 5682 5667 5659 5643 5631 5617
5762 5758 5758 5757 5754 5752 5750 5749 5748 5746 5745 5743 5743 5744 5743 5739 5735 5728 5724 5716 5712 5712 5707 5702 5697 5689 5691 5686 5678 5674 5666 5668 5659 5647 5640 5631 5616 5602
5743 5742 5738 5737 5735 5733 5732 5731 5731 5732 5732 5731 5730 5729 5727 5724 5722 5720 5718 5711 5704 5697 5695 5693 5691 5688 5682 5674 5667 5663 5657 5652 5639 5630 5624 5617 5610 5602
5723 5721 5720 5718 5716 5715 5715 5714 5713 5713 5713 5712 5711 5710 5711 5711 5709 5708 5706 5703 5696 5690 5685 5682 5680 5677 5672 5666 5659 5650 5644 5637 5626 5623 5621 5617 5614 5610